Погода в Стародубском

Россия / Сахалинская область     47°24′39″N   142°49′03″E
темп.,
°C
ветер,
м/с
пор.,
м/с
влажн.,
%
обл.,
%
осадки,
мм/ч
давл.,
гПа
погр.,
м
28 июня, вт
вт2823:00+13з2282100 0.0 100738
02:00+12з238468 0.0 100760
05:00+10з22905 0.0 100627
08:00+13зюз23854 0.0 1007120
11:00+14всв318453 0.0 1007322
14:00+13в3390100 0.0 1006275
17:00+12юв3492100 0.0 1006203
20:00+11юв2392100 0.0 100687
29 июня, ср
ср2923:00+11юв2294100 0.0 100627
02:00+10в2397100 0.0 100565
05:00+10св2395100 0.0 1005120
08:00+10св3394100 0.0 1005188
11:00+10св229086 0.0 1006254
14:00+11всв328754 0.0 1007295
17:00+11в228728 0.0 1007308
20:00+10в228913 0.0 1009181
30 июня, чт
чт3023:00+9ю009424 0.0 101011
02:00+9зсз119258 0.0 101110
05:00+9ссз119270 0.0 101211
08:00+11св118994 0.0 1013109
11:00+11всв228683 0.0 1014224
14:00+12всв328456 0.0 1015327
17:00+12вюв328666 0.0 1015315
20:00+11юв339155 0.0 1016146
1 июля, пт
пт123:00+11вюв2288100 0.0 101732
02:00+11ю1192100 0.0 101612
05:00+10юз11936 0.0 101611
08:00+13ююз22894 0.0 1016101
11:00+15в3378100 0.0 1015462
14:00+15в3383100 0.0 1014274
17:00+17св237499 0.0 1013371
20:00+15ссз1186100 0.0 101222
2 июля, сб
сб223:00+14юз438795 0.0 101239
02:00+12юз339198 0.0 101138
05:00+13юз3490100 0.0 101046
08:00+15юз349099 0.0 1009102
11:00+17ююз349095 0.0 1008276
14:00+18зюз4684100 0.0 1007324
17:00+20зюз697488 0.0 1005396
20:00+19з45827 0.0 1005258